EN

Hourly Weather Idappadi

Today, 25 November, Wednesday

Time Temperature Precipitation Wind Pressure Humidity
00:00 +24°C° 0 mm 3 mps 738 mmHg 87%
01:00 +24°C° 0 mm 3 mps 738 mmHg 87%
02:00 +24°C° 0 mm 3 mps 737 mmHg 87%
03:00 +24°C° 0 mm 3 mps 737 mmHg 87%
04:00 +22°C° 0 mm 3 mps 737 mmHg 87%
05:00 +22°C° 0 mm 3 mps 737 mmHg 85%
06:00 +24°C° 0 mm 2 mps 737 mmHg 83%
07:00 +25°C° 0 mm 2 mps 738 mmHg 80%
08:00 +26°C° 0 mm 2 mps 738 mmHg 77%
09:00 +27°C° 0 mm 3 mps 738 mmHg 73%
10:00 +28°C° 0 mm 3 mps 738 mmHg 69%
11:00 +29°C° 0 mm 3 mps 738 mmHg 65%
12:00 +29°C° 0 mm 3 mps 737 mmHg 65%
13:00 +30°C° 0 mm 3 mps 736 mmHg 66%
14:00 +30°C° 0 mm 3 mps 735 mmHg 66%
15:00 +29°C° 0.2 mm 3 mps 735 mmHg 70%
16:00 +28°C° 0.2 mm 2 mps 735 mmHg 74%
17:00 +28°C° 0.2 mm 2 mps 734 mmHg 77%
18:00 +27°C° 0.6 mm 2 mps 735 mmHg 81%
19:00 +26°C° 0.6 mm 2 mps 735 mmHg 84%
20:00 +26°C° 0.6 mm 1 mps 735 mmHg 88%
21:00 +25°C° 0.1 mm 2 mps 735 mmHg 87%
22:00 +25°C° 0.1 mm 2 mps 735 mmHg 87%
23:00 +25°C° 0.1 mm 2 mps 735 mmHg 86%

Tomorrow, 26 November, Thursday

Time Temperature Precipitation Wind Pressure Humidity
00:00 +25°C° 2.5 mm 2 mps 735 mmHg 89%
01:00 +24°C° 2.5 mm 2 mps 734 mmHg 92%
02:00 +24°C° 2.5 mm 2 mps 733 mmHg 94%
03:00 +24°C° 0.5 mm 2 mps 734 mmHg 94%
04:00 +24°C° 0.5 mm 2 mps 734 mmHg 93%
05:00 +24°C° 0.5 mm 2 mps 734 mmHg 93%
06:00 +24°C° 0.3 mm 2 mps 735 mmHg 93%
07:00 +24°C° 0.3 mm 2 mps 736 mmHg 93%
08:00 +24°C° 0.3 mm 2 mps 736 mmHg 92%
09:00 +25°C° 0.1 mm 2 mps 736 mmHg 89%
10:00 +26°C° 0.1 mm 2 mps 736 mmHg 85%
11:00 +27°C° 0.1 mm 1 mps 736 mmHg 81%
12:00 +28°C° 0 mm 2 mps 735 mmHg 78%
13:00 +28°C° 0 mm 2 mps 735 mmHg 76%
14:00 +29°C° 0 mm 2 mps 734 mmHg 73%
15:00 +28°C° 0.2 mm 2 mps 735 mmHg 76%
16:00 +28°C° 0.2 mm 1 mps 735 mmHg 79%
17:00 +27°C° 0.2 mm 1 mps 735 mmHg 82%
18:00 +26°C° 0 mm 1 mps 736 mmHg 83%
19:00 +26°C° 0 mm 1 mps 737 mmHg 84%
20:00 +25°C° 0 mm 1 mps 738 mmHg 86%
21:00 +25°C° 0 mm 1 mps 738 mmHg 86%
22:00 +23°C° 0 mm 0 mps 738 mmHg 86%
23:00 +23°C° 0 mm 0 mps 738 mmHg 86%

Day after tomorrow, 27 November, Friday

Time Temperature Precipitation Wind Pressure Humidity
00:00 +23°C° 0 mm 0 mps 737 mmHg 86%
01:00 +24°C° 0 mm 1 mps 737 mmHg 87%
02:00 +24°C° 0 mm 1 mps 737 mmHg 87%
03:00 +24°C° 0 mm 1 mps 737 mmHg 87%
04:00 +24°C° 0 mm 1 mps 737 mmHg 87%
05:00 +25°C° 0 mm 1 mps 737 mmHg 86%
06:00 +23°C° 0 mm 0 mps 738 mmHg 84%
07:00 +24°C° 0 mm 0 mps 739 mmHg 82%
08:00 +25°C° 0 mm 0 mps 739 mmHg 79%
09:00 +26°C° 0 mm 0 mps 739 mmHg 74%
10:00 +28°C° 0 mm 0 mps 739 mmHg 69%
11:00 +31°C° 0 mm 1 mps 738 mmHg 63%
12:00 +31°C° 0.1 mm 1 mps 738 mmHg 63%
13:00 +32°C° 0.1 mm 1 mps 737 mmHg 62%
14:00 +32°C° 0.1 mm 1 mps 736 mmHg 61%
15:00 +31°C° 0.6 mm 1 mps 737 mmHg 67%
16:00 +30°C° 0.6 mm 1 mps 737 mmHg 72%
17:00 +29°C° 0.6 mm 1 mps 737 mmHg 78%
18:00 +28°C° 0.9 mm 1 mps 738 mmHg 80%
19:00 +27°C° 0.9 mm 1 mps 739 mmHg 82%
20:00 +26°C° 0.9 mm 1 mps 739 mmHg 84%
21:00 +26°C° 1 mm 1 mps 739 mmHg 86%
22:00 +25°C° 1 mm 1 mps 740 mmHg 88%
23:00 +25°C° 1 mm 1 mps 740 mmHg 90%

28 November, Saturday

Time Temperature Precipitation Wind Pressure Humidity
00:00 +25°C° 1.2 mm 1 mps 739 mmHg 91%
01:00 +25°C° 1.2 mm 1 mps 739 mmHg 91%
02:00 +24°C° 1.2 mm 1 mps 739 mmHg 92%
03:00 +25°C° 0.2 mm 1 mps 739 mmHg 91%
04:00 +25°C° 0.2 mm 1 mps 739 mmHg 91%
05:00 +25°C° 0.2 mm 1 mps 739 mmHg 91%
06:00 +25°C° 0 mm 1 mps 740 mmHg 88%
07:00 +26°C° 0 mm 1 mps 740 mmHg 86%
08:00 +27°C° 0 mm 2 mps 741 mmHg 84%
09:00 +28°C° 0 mm 2 mps 740 mmHg 77%
10:00 +29°C° 0 mm 2 mps 740 mmHg 70%
11:00 +30°C° 0 mm 2 mps 740 mmHg 63%
12:00 +31°C° 0 mm 2 mps 739 mmHg 62%
13:00 +31°C° 0 mm 2 mps 738 mmHg 61%
14:00 +31°C° 0 mm 1 mps 737 mmHg 61%
15:00 +30°C° 0.2 mm 1 mps 738 mmHg 65%
16:00 +29°C° 0.2 mm 1 mps 738 mmHg 70%
17:00 +29°C° 0.2 mm 1 mps 738 mmHg 75%
18:00 +28°C° 0.3 mm 1 mps 739 mmHg 78%
19:00 +27°C° 0.3 mm 1 mps 740 mmHg 82%
20:00 +26°C° 0.3 mm 1 mps 741 mmHg 85%
21:00 +25°C° 0.1 mm 1 mps 740 mmHg 87%
22:00 +25°C° 0.1 mm 1 mps 740 mmHg 89%
23:00 +25°C° 0.1 mm 1 mps 740 mmHg 91%

29 November, Sunday

Time Temperature Precipitation Wind Pressure Humidity
00:00 +24°C° 0 mm 1 mps 740 mmHg 91%
01:00 +24°C° 0 mm 1 mps 739 mmHg 92%
02:00 +24°C° 0 mm 1 mps 739 mmHg 93%
03:00 +24°C° 0 mm 1 mps 739 mmHg 93%
04:00 +24°C° 0 mm 1 mps 739 mmHg 93%
05:00 +24°C° 0 mm 1 mps 739 mmHg 93%
06:00 +24°C° 0 mm 2 mps 740 mmHg 92%
07:00 +25°C° 0 mm 2 mps 740 mmHg 90%
08:00 +26°C° 0 mm 2 mps 741 mmHg 88%
09:00 +26°C° 0.1 mm 2 mps 740 mmHg 85%
10:00 +27°C° 0.1 mm 2 mps 740 mmHg 82%
11:00 +28°C° 0.1 mm 2 mps 740 mmHg 79%
12:00 +29°C° 0.3 mm 2 mps 739 mmHg 75%
13:00 +29°C° 0.3 mm 2 mps 738 mmHg 71%
14:00 +30°C° 0.3 mm 2 mps 737 mmHg 67%
15:00 +30°C° 0.7 mm 2 mps 738 mmHg 71%
16:00 +29°C° 0.7 mm 1 mps 738 mmHg 75%
17:00 +28°C° 0.7 mm 1 mps 738 mmHg 80%
18:00 +27°C° 0.3 mm 2 mps 739 mmHg 82%
19:00 +26°C° 0.3 mm 2 mps 739 mmHg 85%
20:00 +25°C° 0.3 mm 2 mps 740 mmHg 88%
21:00 +25°C° 0 mm 2 mps 740 mmHg 89%
22:00 +25°C° 0 mm 2 mps 740 mmHg 90%
23:00 +24°C° 0 mm 2 mps 740 mmHg 91%

30 November, Monday

Time Temperature Precipitation Wind Pressure Humidity
00:00 +24°C° 0 mm 2 mps 739 mmHg 91%
01:00 +24°C° 0 mm 2 mps 739 mmHg 92%
02:00 +23°C° 0 mm 2 mps 738 mmHg 93%
03:00 +23°C° 0 mm 2 mps 739 mmHg 93%
04:00 +23°C° 0 mm 2 mps 739 mmHg 93%
05:00 +23°C° 0 mm 2 mps 739 mmHg 93%
06:00 +24°C° 0 mm 2 mps 739 mmHg 89%
07:00 +25°C° 0 mm 2 mps 740 mmHg 86%
08:00 +26°C° 0 mm 3 mps 740 mmHg 82%
09:00 +27°C° 0 mm 3 mps 740 mmHg 77%
10:00 +28°C° 0 mm 2 mps 740 mmHg 72%
11:00 +30°C° 0 mm 2 mps 739 mmHg 67%
12:00 +30°C° 0.1 mm 2 mps 739 mmHg 66%
13:00 +31°C° 0.1 mm 2 mps 738 mmHg 64%
14:00 +31°C° 0.1 mm 2 mps 737 mmHg 62%
15:00 +30°C° 0.1 mm 2 mps 737 mmHg 67%
16:00 +29°C° 0.1 mm 2 mps 738 mmHg 72%
17:00 +28°C° 0.1 mm 2 mps 738 mmHg 77%
18:00 +27°C° 0.5 mm 2 mps 738 mmHg 80%
19:00 +26°C° 0.5 mm 2 mps 739 mmHg 83%
20:00 +25°C° 0.5 mm 2 mps 740 mmHg 87%
21:00 +25°C° 0.1 mm 2 mps 740 mmHg 88%
22:00 +25°C° 0.1 mm 2 mps 740 mmHg 89%
23:00 +24°C° 0.1 mm 2 mps 740 mmHg 91%
Show more